Augusta Bush, GA

5:54 PM EST on January 17, 2018 (GMT -0500)
Augusta Regional At Bush

Weather History for KAGS - September, 2012

Change the Weather History Date:

Tuesday, September 18, 2012

  Actual Average Record
Temperature  
Mean Temperature 74 °F 74 °F  
Max Temperature 79 °F 86 °F 104 °F (1931)
Min Temperature 68 °F 62 °F 52 °F (1981)
Degree Days  
Heating Degree Days 0 0  
Month to date heating degree days 0 0  
Since 1 July heating degree days 0 0  
Cooling Degree Days 9 9  
Month to date cooling degree days 204 209  
Year to date cooling degree days 2009 1897  
Growing Degree Days 25 (Base 50)    
Moisture  
Dew Point 71 °F    
Average Humidity 84    
Maximum Humidity 93    
Minimum Humidity 74    
Precipitation  
Precipitation 0.23 in 0.10 in 4.20 in (1901)
Month to date precipitation 1.01 1.93  
Year to date precipitation 28.12 32.80  
Sea Level Pressure  
Sea Level Pressure 29.79 in    
Wind  
Wind Speed 8 mph (SSW)    
Max Wind Speed 18 mph    
Max Gust Speed 25 mph    
Visibility 9 miles    
Events Rain , Thunderstorm    
T = Trace of Precipitation, MM = Missing Value Source: NWS Daily Summary

Daily Weather History Graph

Daily Weather History Graph

Search for Another Location

Airport or City:

Trip Planner

Search our weather history database for the weather conditions in past years. The results will help you decide how hot, cold, wet, or windy it might be!

Date:

Astronomy

Sep. 18, 2012 Rise Set
Actual Time 7:13 AM EDT 7:29 PM EDT
Civil Twilight 6:48 AM EDT 7:54 PM EDT
Nautical Twilight 6:19 AM EDT 8:23 PM EDT
Astronomical Twilight 5:50 AM EDT 8:52 PM EDT
Moon 9:59 AM EDT (9/18) 9:04 PM EDT (9/18)
Length of Visible Light 13h 05m
Length of Day
12h 15m
Waxing Crescent, 9% of the Moon is Illuminated
Sep 18
Waxing Crescent
Sep 22
First Quarter
Sep 29
Full
Oct 8
Last Quarter
Oct 15
New

Hourly Weather History & Observations

Time (EDT) Temp. Dew Point Humidity Pressure Visibility Wind Dir Wind Speed Gust Speed Precip Events Conditions
12:53 AM 73.9 °F 72.0 °F 93% 29.88 in 10.0 mi SSE 8.1 mph 16.1 mph N/A   Overcast
1:53 AM 75.0 °F 72.0 °F 90% 29.86 in 9.0 mi South 9.2 mph - N/A   Overcast
2:53 AM 73.9 °F 72.0 °F 93% 29.83 in 10.0 mi SSE 6.9 mph - 0.07 in   Scattered Clouds
3:06 AM 73.4 °F 71.6 °F 94% 29.83 in 10.0 mi SSE 6.9 mph - N/A   Mostly Cloudy
3:53 AM 73.9 °F 72.0 °F 93% 29.82 in 10.0 mi South 6.9 mph - 0.00 in Rain Light Rain
4:04 AM 73.4 °F 71.6 °F 94% 29.82 in 10.0 mi South 8.1 mph - 0.00 in Rain , Thunderstorm Light Thunderstorms and Rain
4:17 AM 73.4 °F 71.6 °F 94% 29.81 in 2.5 mi South 11.5 mph - 0.09 in Rain , Thunderstorm Light Thunderstorms and Rain
4:24 AM 73.4 °F 71.6 °F 94% 29.81 in 10.0 mi South 10.4 mph - 0.09 in Rain , Thunderstorm Light Thunderstorms and Rain
4:34 AM 73.4 °F 71.6 °F 94% 29.81 in 10.0 mi South 6.9 mph - 0.09 in   Overcast
4:53 AM 73.9 °F 72.0 °F 93% 29.81 in 10.0 mi South 6.9 mph - 0.09 in   Overcast
5:53 AM 73.9 °F 72.0 °F 93% 29.80 in 10.0 mi South 10.4 mph - 0.00 in   Overcast
6:53 AM 73.9 °F 72.0 °F 93% 29.79 in 10.0 mi South 6.9 mph - N/A   Overcast
7:53 AM 73.9 °F 72.0 °F 93% 29.79 in 6.0 mi South 8.1 mph - 0.03 in Rain Light Rain
7:58 AM 73.4 °F 71.6 °F 94% 29.79 in 5.0 mi South 9.2 mph - 0.00 in   Overcast
8:35 AM 73.4 °F 71.6 °F 94% 29.80 in 5.0 mi South 11.5 mph - 0.00 in   Overcast
8:42 AM 73.4 °F 71.6 °F 94% 29.80 in 5.0 mi South 10.4 mph - 0.00 in   Overcast
8:53 AM 73.9 °F 72.0 °F 93% 29.79 in 6.0 mi South 11.5 mph - 0.00 in   Overcast
9:07 AM 73.4 °F 71.6 °F 94% 29.80 in 10.0 mi South 11.5 mph - N/A   Overcast
9:53 AM 75.9 °F 72.0 °F 87% 29.79 in 10.0 mi SSW 9.2 mph - N/A   Overcast
10:36 AM 77.0 °F 71.6 °F 83% 29.80 in 10.0 mi South 11.5 mph - N/A   Overcast
10:53 AM 77.0 °F 72.0 °F 84% 29.80 in 10.0 mi SSW 10.4 mph - N/A   Overcast
11:53 AM 73.0 °F 68.0 °F 84% 29.81 in 10.0 mi SW 15.0 mph 25.3 mph 0.03 in Rain Light Rain
12:25 PM 71.6 °F 66.2 °F 83% 29.79 in 10.0 mi WSW 3.5 mph - 0.00 in   Partly Cloudy
12:53 PM 72.0 °F 68.0 °F 87% 29.78 in 10.0 mi SE 4.6 mph - 0.01 in Rain Light Rain
1:53 PM 75.9 °F 72.0 °F 87% 29.78 in 10.0 mi SSW 8.1 mph - 0.00 in   Scattered Clouds
2:53 PM 78.1 °F 70.0 °F 76% 29.76 in 10.0 mi SW 10.4 mph - N/A   Scattered Clouds
3:31 PM 77.0 °F 69.8 °F 78% 29.75 in 10.0 mi SSW 10.4 mph - N/A   Mostly Cloudy
3:53 PM 77.0 °F 69.1 °F 76% 29.73 in 10.0 mi SSW 11.5 mph - N/A   Clear
3:59 PM 77.0 °F 69.8 °F 78% 29.74 in 10.0 mi SSW 9.2 mph - N/A   Mostly Cloudy
4:53 PM 78.1 °F 70.0 °F 76% 29.74 in 10.0 mi South 9.2 mph - N/A   Scattered Clouds
5:53 PM 78.1 °F 70.0 °F 76% 29.73 in 10.0 mi South 9.2 mph - N/A   Scattered Clouds
6:02 PM 78.8 °F 69.8 °F 74% 29.74 in 10.0 mi South 10.4 mph - N/A   Mostly Cloudy
6:15 PM 77.0 °F 69.8 °F 78% 29.75 in 10.0 mi South 8.1 mph - N/A   Scattered Clouds
6:53 PM 77.0 °F 71.1 °F 82% 29.74 in 10.0 mi South 8.1 mph - N/A   Scattered Clouds
7:48 PM 75.2 °F 69.8 °F 83% 29.76 in 10.0 mi SSW 5.8 mph - N/A   Overcast
7:53 PM 75.0 °F 70.0 °F 84% 29.76 in 10.0 mi SSW 4.6 mph - N/A   Mostly Cloudy
8:34 PM 73.4 °F 71.6 °F 94% 29.77 in 10.0 mi SSW 5.8 mph - 0.00 in   Overcast
8:53 PM 73.9 °F 71.1 °F 91% 29.78 in 10.0 mi SW 3.5 mph - 0.00 in   Overcast
9:03 PM 73.4 °F 71.6 °F 94% 29.78 in 10.0 mi West 5.8 mph - N/A   Overcast
9:20 PM 75.2 °F 69.8 °F 83% 29.79 in 10.0 mi WSW 4.6 mph - N/A   Overcast
9:53 PM 73.0 °F 66.9 °F 81% 29.80 in 10.0 mi West 5.8 mph - N/A   Mostly Cloudy
10:53 PM 71.1 °F 66.9 °F 87% 29.82 in 10.0 mi WSW 4.6 mph - N/A   Clear
11:53 PM 69.1 °F 66.9 °F 93% 29.85 in 10.0 mi Calm Calm - N/A   Partly Cloudy